GW3485 Weather Reports


time (UTC)temp
F
wind
direction
speed
knots
gust
knots
rain 1hr
in
rain 24hr
in
rain mn
in
humidity
%
barometer
mb
20260503224340 58 232 0.0 0.9 0.00 0.00 0.00 37 1015.7
20260503223837 58 222 0.9 0.9 0.00 0.00 0.00 38 1015.9
20260503223335 57 339 1.7 2.6 0.00 0.00 0.00 38 1015.7
20260503222830 58 261 0.9 0.9 0.00 0.00 0.00 38 1015.9
20260503222329 58 307 2.6 2.6 0.00 0.00 0.00 37 1016.0
20260503221827 58 270 2.6 2.6 0.00 0.00 0.00 40 1016.1
20260503221325 58 216 1.7 2.6 0.00 0.00 0.00 39 1016.0
20260503220815 57 186 5.2 6.1 0.00 0.00 0.00 38 1015.9
20260503220312 57 129 6.1 7.0 0.00 0.00 0.00 38 1015.8
20260503215809 58 218 1.7 2.6 0.00 0.00 0.00 37 1015.8
20260503215306 57 201 1.7 2.6 0.00 0.00 0.00 39 1015.9
20260503214804 58 205 1.7 2.6 0.00 0.00 0.00 38 1016.0
20260503214301 59 227 0.9 0.9 0.00 0.00 0.00 38 1016.0
20260503213758 57 232 0.9 0.9 0.00 0.00 0.00 39 1015.9
20260503213255 58 220 3.5 5.2 0.00 0.00 0.00 38 1015.9
20260503212752 59 223 4.3 6.1 0.00 0.00 0.00 37 1015.9
20260503212250 60 226 2.6 3.5 0.00 0.00 0.00 38 1016.0
20260503211747 59 191 1.7 2.6 0.00 0.00 0.00 41 1015.9
20260503211243 58 97 4.3 7.0 0.00 0.00 0.00 38 1015.6
20260503210739 57 232 1.7 2.6 0.00 0.00 0.00 41 1015.9
20260503210237 58 208 4.3 6.1 0.00 0.00 0.00 37 1015.8
20260503205732 59 242 0.9 0.9 0.00 0.00 0.00 36 1015.9
20260503205228 59 210 0.0 0.9 0.00 0.00 0.00 36 1015.9
20260503204724 59 247 1.7 3.5 0.00 0.00 0.00 36 1016.0
20260503204223 58 355 2.6 5.2 0.00 0.00 0.00 38 1016.0
20260503203720 58 102 11.3 13.0 0.00 0.00 0.00 36 1016.3
20260503203217 59 167 1.7 2.6 0.00 0.00 0.00 35 1016.3
20260503202714 59 199 2.6 3.5 0.00 0.00 0.00 35 1016.2
20260503202212 58 189 1.7 2.6 0.00 0.00 0.00 36 1016.3
20260503201710 58 341 3.5 3.5 0.00 0.00 0.00 36 1016.6
20260503201207 60 130 1.7 5.2 0.00 0.00 0.00 38 1016.5
20260503200703 60 286 5.2 6.1 0.00 0.00 0.00 39 1016.6
20260503200159 58 196 1.7 2.6 0.00 0.00 0.00 38 1016.7
20260503195656 58 218 3.5 5.2 0.00 0.00 0.00 40 1016.7
20260503195153 59 51 3.5 3.5 0.00 0.00 0.00 36 1016.8
20260503194650 58 254 3.5 3.5 0.00 0.00 0.00 35 1016.9
20260503194146 58 341 2.6 5.2 0.00 0.00 0.00 36 1016.8
20260503193643 57 253 0.9 1.7 0.00 0.00 0.00 39 1016.9
20260503193138 58 227 1.7 2.6 0.00 0.00 0.00 37 1016.9
20260503192634 58 268 2.6 3.5 0.00 0.00 0.00 38 1017.0
20260503192130 57 50 7.0 7.8 0.00 0.00 0.00 37 1017.0
20260503191627 57 147 5.2 6.1 0.00 0.00 0.00 38 1017.4
20260503191124 57 39 2.6 3.5 0.00 0.00 0.00 38 1017.2
20260503190621 57 59 1.7 2.6 0.00 0.00 0.00 38 1017.3
20260503190118 59 11 1.7 2.6 0.00 0.00 0.00 37 1017.4
20260503185614 58 160 1.7 2.6 0.00 0.00 0.00 42 1017.5
20260503185114 58 111 1.7 2.6 0.00 0.00 0.00 38 1017.7
20260503184609 58 353 3.5 6.1 0.00 0.00 0.00 39 1017.7
20260503184106 57 189 2.6 3.5 0.00 0.00 0.00 39 1017.8
20260503183603 56 200 0.9 1.7 0.00 0.00 0.00 40 1017.9
20260503183100 57 28 4.3 5.2 0.00 0.00 0.00 38 1017.7
20260503182559 58 16 3.5 5.2 0.00 0.00 0.00 39 1017.9
20260503182056 58 6 2.6 3.5 0.00 0.00 0.00 40 1017.9
20260503181553 57 207 2.6 2.6 0.00 0.00 0.00 45 1017.7
20260503181049 55 112 5.2 6.1 0.00 0.00 0.00 40 1017.9
20260503180546 57 49 4.3 6.1 0.00 0.00 0.00 38 1018.0
20260503180044 57 231 2.6 3.5 0.00 0.00 0.00 42 1017.9
20260503175541 56 119 1.7 1.7 0.00 0.00 0.00 44 1018.2
20260503175038 57 64 3.5 3.5 0.00 0.00 0.00 40 1018.1
20260503174535 57 46 6.1 7.8 0.00 0.00 0.00 40 1018.2
20260503174031 56 250 2.6 3.5 0.00 0.00 0.00 40 1018.2
20260503173521 55 105 3.5 3.5 0.00 0.00 0.00 43 1018.5
20260503173018 56 267 4.3 7.0 0.00 0.00 0.00 43 1018.3
20260503172516 56 247 2.6 3.5 0.00 0.00 0.00 40 1018.3
20260503172013 57 355 3.5 5.2 0.00 0.00 0.00 42 1018.6
20260503171509 55 228 0.9 1.7 0.00 0.00 0.00 41 1018.4
20260503171006 55 175 3.5 7.0 0.00 0.00 0.00 42 1018.7
20260503170457 53 51 2.6 2.6 0.00 0.00 0.00 46 1018.8
20260503150849 50 352 3.5 3.5 0.00 0.00 0.00 48 1019.5
20260503150345 50 99 5.2 7.0 0.00 0.00 0.00 44 1019.6
20260503140309 48 229 0.9 1.7 0.00 0.00 0.00 56 1019.8
20260503131239 45 201 0.0 0.0 0.00 0.00 0.00 67 1019.8
20260503130737 45 186 6.1 7.0 0.00 0.00 0.00 66 1019.9
20260503130234 44 314 1.7 1.7 0.00 0.00 0.00 68 1019.8
20260503120200 30 264 0.0 0.0 0.00 0.00 0.00 99 1019.5
20260503110627 28 264 0.0 0.0 0.00 0.00 0.00 99 1019.3
20260503110124 28 264 0.0 0.0 0.00 0.00 0.00 99 1019.2
20260503090508 31 263 0.0 0.0 0.00 0.00 0.00 99 1018.4
20260503081428 31 264 0.0 0.0 0.00 0.00 0.00 99 1018.3
20260503080926 31 264 0.0 0.0 0.00 0.00 0.00 99 1018.2
20260503080422 31 264 0.0 0.0 0.00 0.00 0.00 99 1018.1
20260503072858 30 264 0.0 0.0 0.00 0.00 0.00 99 1018.0
20260503072355 30 264 0.0 0.0 0.00 0.00 0.00 99 1018.1
20260503071852 30 264 0.0 0.0 0.00 0.00 0.00 99 1018.1
20260503071349 30 264 0.0 0.0 0.00 0.00 0.00 99 1018.0
20260503070845 30 264 0.0 0.0 0.00 0.00 0.00 99 1017.9
20260503070343 30 264 0.0 0.0 0.00 0.00 0.00 99 1017.9
20260503052454 34 264 0.0 0.0 0.00 0.00 0.00 96 1018.0
20260503051950 34 264 0.0 0.0 0.00 0.00 0.00 96 1018.0
20260503051446 34 264 0.0 0.0 0.00 0.00 0.00 96 1018.1
20260503050944 35 264 0.0 0.0 0.00 0.00 0.00 96 1017.9
20260503050439 35 264 0.0 0.0 0.00 0.00 0.00 96 1018.0
20260503045937 36 264 0.0 0.0 0.00 0.00 0.00 96 1018.1
20260503045435 36 264 0.0 0.0 0.00 0.00 0.00 96 1018.1
20260503044931 37 264 0.0 0.0 0.00 0.00 0.00 96 1018.1
20260503044428 37 264 0.0 0.0 0.00 0.00 0.00 96 1018.2
20260503043926 37 264 0.0 0.0 0.00 0.00 0.00 96 1018.1
20260503043422 37 264 0.0 0.0 0.00 0.00 0.00 96 1018.1
20260503042918 37 264 0.0 0.0 0.00 0.00 0.00 95 1018.2
20260503042415 37 264 0.0 0.0 0.00 0.00 0.00 95 1018.2
20260503041912 37 264 0.0 0.0 0.00 0.00 0.00 95 1018.3
20260503041409 37 264 0.0 0.0 0.00 0.00 0.00 95 1018.0
20260503040906 37 264 0.0 0.0 0.00 0.00 0.00 95 1018.2
20260503040403 37 264 0.0 0.0 0.00 0.00 0.00 95 1018.2
20260503035900 37 264 0.0 0.0 0.00 0.00 0.00 95 1018.1
20260503035357 37 264 0.0 0.0 0.00 0.00 0.00 95 1018.2
20260503034854 37 264 0.0 0.0 0.00 0.00 0.00 95 1018.1
20260503034352 37 264 0.0 0.0 0.00 0.00 0.00 94 1018.1
20260503033849 37 264 0.0 0.0 0.00 0.00 0.00 94 1018.1
20260503033347 37 264 0.0 0.0 0.00 0.00 0.00 93 1018.1
20260503032844 37 264 0.0 0.0 0.00 0.00 0.00 93 1018.1
20260503032343 37 264 0.0 0.0 0.00 0.00 0.00 93 1018.2
20260503031840 37 264 0.0 0.0 0.00 0.00 0.00 93 1018.2
20260503031337 37 264 0.0 0.0 0.00 0.00 0.00 93 1018.1
20260503030834 37 264 0.0 0.0 0.00 0.00 0.00 93 1018.1
20260503030330 37 264 0.0 0.0 0.00 0.00 0.00 93 1018.2
20260503025827 37 264 0.0 0.0 0.00 0.00 0.00 92 1018.1
20260503025325 37 264 0.0 0.0 0.00 0.00 0.00 92 1018.1
20260503024821 38 264 0.0 0.0 0.00 0.00 0.00 92 1018.2
20260503024318 38 264 0.0 0.0 0.00 0.00 0.00 92 1018.2
20260503023815 38 264 0.0 0.0 0.00 0.00 0.00 91 1018.2
20260503023312 39 264 0.9 0.9 0.00 0.00 0.00 90 1018.3
20260503022808 39 264 0.9 0.9 0.00 0.00 0.00 88 1018.2
20260503022304 40 264 0.0 0.0 0.00 0.00 0.00 86 1018.1
20260503021800 40 264 0.0 0.0 0.00 0.00 0.00 84 1018.1
20260503021256 40 264 0.0 0.0 0.00 0.00 0.00 82 1018.2
20260503020754 40 264 0.0 0.9 0.00 0.00 0.00 81 1018.3
20260503020251 41 264 0.0 0.0 0.00 0.00 0.00 80 1018.3
20260503015747 41 264 0.9 0.9 0.00 0.00 0.00 81 1018.4
20260503015244 41 263 0.9 0.9 0.00 0.00 0.00 80 1018.4
20260503014740 41 264 0.0 0.0 0.00 0.00 0.00 81 1018.3
20260503014238 41 265 0.0 0.9 0.00 0.00 0.00 80 1018.6
20260503013735 41 265 0.9 0.9 0.00 0.00 0.00 80 1018.2
20260503013233 41 282 1.7 1.7 0.00 0.00 0.00 80 1018.4
20260503012730 41 264 0.9 0.9 0.00 0.00 0.00 81 1018.3
20260503012227 41 263 0.0 0.9 0.00 0.00 0.00 81 1018.1
20260503011723 41 263 0.0 0.0 0.00 0.00 0.00 81 1018.2
20260503011221 41 263 0.0 0.0 0.00 0.00 0.00 82 1018.1
20260503010716 41 263 0.0 0.0 0.00 0.00 0.00 79 1018.1
20260503010214 41 263 0.9 0.9 0.00 0.00 0.00 79 1018.2
20260503005711 41 263 0.0 0.0 0.00 0.00 0.00 79 1018.0
20260503005208 41 263 0.9 0.9 0.00 0.00 0.00 78 1018.1
20260503004704 41 263 0.0 0.0 0.00 0.00 0.00 78 1017.9
20260503004203 41 263 0.0 0.0 0.00 0.00 0.00 77 1018.0
20260503003659 41 263 0.0 0.0 0.00 0.00 0.00 77 1017.6
20260503003156 42 263 0.0 0.0 0.00 0.00 0.00 77 1017.7
20260503002653 42 292 0.9 0.9 0.00 0.00 0.00 76 1017.7
20260503002150 42 265 0.0 0.0 0.00 0.00 0.00 76 1017.8
20260503001646 42 274 0.0 0.9 0.00 0.00 0.00 75 1017.6
20260503001143 42 265 0.9 1.7 0.00 0.00 0.00 76 1017.7
20260503000640 42 261 0.0 0.0 0.00 0.00 0.00 76 1017.6
20260503000137 42 261 0.9 0.9 0.00 0.00 0.00 76 1017.6
20260502235634 42 259 0.0 0.0 0.00 0.00 0.00 76 1017.5
20260502235132 42 266 0.9 0.9 0.00 0.00 0.00 76 1017.5
20260502234628 42 288 0.9 0.9 0.00 0.00 0.00 75 1017.4
20260502234126 42 271 0.9 0.9 0.00 0.00 0.00 74 1017.4
20260502233621 42 278 1.7 1.7 0.00 0.00 0.00 75 1017.3
20260502233118 43 281 1.7 1.7 0.00 0.00 0.00 74 1017.4
20260502232614 43 257 0.0 0.0 0.00 0.00 0.00 74 1017.4
20260502232112 43 305 2.6 3.5 0.00 0.00 0.00 74 1017.2
20260502231608 43 271 1.7 1.7 0.00 0.00 0.00 74 1017.2
20260502231106 44 258 0.9 0.9 0.00 0.00 0.00 73 1016.9
20260502230604 44 288 0.9 0.9 0.00 0.00 0.00 72 1017.0
20260502225557 44 359 1.7 2.6 0.00 0.00 0.00 73 1017.0
20260502225055 44 273 1.7 1.7 0.00 0.00 0.00 74 1017.0
20260502224551 44 300 2.6 2.6 0.00 0.00 0.00 74 1017.0